DW5683 Weather Reports


time (UTC)temp
C
wind
direction
speed
KPH
gust
KPH
rain 1hr
cm
rain 24hr
cm
rain mn
cm
humidity
%
barometer
mb
20260901054546 15 134 3.2 11.3 0.00 0.00 0.00 78 1012.2
20260901053051 15 133 3.2 12.9 0.00 0.00 0.00 77 1012.1
20260901051541 16 138 1.6 11.3 0.00 0.00 0.00 76 1012.0
20260901050040 16 0 3.2 11.3 0.00 0.00 0.00 75 1012.1
20260901044541 16 148 3.2 16.1 0.00 0.00 0.00 74 1012.0
20260901043044 16 155 1.6 12.9 0.00 0.00 0.00 74 1011.8
20260901041549 17 0 1.6 14.5 0.00 0.00 0.00 73 1011.8
20260901040109 17 165 3.2 16.1 0.00 0.00 0.00 71 1011.6
20260901034542 17 184 0.0 6.4 0.00 0.00 0.00 69 1011.4
20260901033053 18 184 0.0 6.4 0.00 0.00 0.00 67 1011.1
20260901031542 18 0 0.0 8.0 0.00 0.00 0.00 65 1010.8
20260901030042 19 184 3.2 9.7 0.00 0.00 0.00 63 1010.7
20260901024548 20 184 4.8 12.9 0.00 0.00 0.00 61 1010.5
20260901023044 21 185 1.6 12.9 0.00 0.00 0.00 59 1010.4
20260901021545 21 185 6.4 17.7 0.00 0.00 0.00 56 1010.2
20260901020051 22 184 4.8 16.1 0.00 0.00 0.00 53 1010.1
20260901014546 23 182 4.8 16.1 0.00 0.00 0.00 49 1009.9
20260901013103 24 182 1.6 17.7 0.00 0.00 0.00 48 1009.9
20260901011549 25 182 1.6 16.1 0.00 0.00 0.00 48 1009.9
20260901010045 25 183 6.4 14.5 0.00 0.00 0.00 48 1009.8
20260901004554 25 183 6.4 17.7 0.00 0.00 0.00 47 1009.9
20260901003045 26 182 3.2 14.5 0.00 0.00 0.00 47 1010.0
20260901001541 26 183 6.4 16.1 0.00 0.00 0.00 46 1009.9
20260901000039 26 184 1.6 14.5 0.00 0.00 0.00 45 1009.9
20260831234552 27 184 4.8 17.7 0.00 0.00 0.00 43 1010.0
20260831233041 27 183 3.2 16.1 0.00 0.00 0.00 42 1010.1
20260831231548 27 182 1.6 12.9 0.00 0.00 0.00 41 1010.3
20260831230046 27 182 3.2 12.9 0.00 0.00 0.00 42 1010.5
20260831224541 27 0 3.2 9.7 0.00 0.00 0.00 43 1010.6
20260831223049 27 0 1.6 14.5 0.00 0.00 0.00 42 1010.7
20260831221555 27 0 3.2 14.5 0.00 0.00 0.00 43 1010.8
20260831220053 26 0 4.8 16.1 0.00 0.00 0.00 44 1010.9
20260831214549 26 178 6.4 17.7 0.00 0.00 0.00 44 1011.0
20260831213046 26 173 6.4 16.1 0.00 0.00 0.00 44 1011.2
20260831211542 26 169 4.8 14.5 0.00 0.00 0.00 45 1011.3
20260831210051 26 171 4.8 17.7 0.00 0.00 0.00 45 1011.5
20260831204546 25 171 1.6 12.9 0.00 0.00 0.00 47 1011.6
20260831203103 25 0 1.6 12.9 0.00 0.00 0.00 47 1011.6
20260831201601 26 175 3.2 14.5 0.00 0.00 0.00 45 1011.8
20260831200134 25 0 8.0 22.5 0.00 0.00 0.00 47 1011.8
20260831194546 25 168 9.7 22.5 0.00 0.00 0.00 46 1012.1
20260831193042 25 162 6.4 19.3 0.00 0.00 0.00 46 1012.0
20260831191549 25 0 8.0 22.5 0.00 0.00 0.00 49 1012.1
20260831190048 25 171 3.2 20.9 0.00 0.00 0.00 48 1012.1
20260831184618 25 169 4.8 17.7 0.00 0.00 0.00 48 1012.1
20260831184547 25 169 4.8 17.7 0.00 0.00 0.00 48 1012.1
20260831183041 25 169 6.4 24.1 0.00 0.00 0.00 50 1012.0
20260831181552 23 166 6.4 16.1 0.00 0.00 0.00 52 1012.0
20260831180045 23 174 3.2 14.5 0.00 0.00 0.00 50 1012.1
20260831174553 23 175 3.2 16.1 0.00 0.00 0.00 52 1012.0
20260831173042 22 174 4.8 12.9 0.00 0.00 0.00 54 1011.9
20260831171552 21 0 1.6 12.9 0.00 0.00 0.00 56 1012.0
20260831170044 21 0 1.6 11.3 0.00 0.00 0.00 58 1011.9
20260831164542 20 173 1.6 11.3 0.00 0.00 0.00 62 1012.0
20260831163051 19 172 1.6 8.0 0.00 0.00 0.00 67 1012.0
20260831161545 17 172 4.8 11.3 0.00 0.00 0.00 69 1012.0
20260831160043 17 173 4.8 11.3 0.00 0.00 0.00 71 1012.1
20260831154612 17 175 1.6 9.7 0.00 0.00 0.00 72 1012.0
20260831153051 17 175 1.6 9.7 0.00 0.00 0.00 72 1011.8
20260831151544 16 175 1.6 4.8 0.00 0.00 0.00 77 1011.9
20260831150049 15 175 1.6 6.4 0.00 0.00 0.00 80 1011.7
20260831144547 14 0 0.0 3.2 0.00 0.00 0.00 81 1011.6
20260831143043 13 175 0.0 3.2 0.00 0.00 0.00 82 1011.4
20260831141553 13 0 0.0 0.0 0.00 0.00 0.00 81 1011.4
20260831140048 13 0 0.0 0.0 0.00 0.00 0.00 80 1011.2
20260831134548 14 0 0.0 3.2 0.00 0.00 0.00 79 1011.0
20260831133042 14 0 0.0 9.7 0.00 0.00 0.00 78 1010.8
20260831131548 15 175 0.0 4.8 0.00 0.00 0.00 76 1010.6
20260831130053 15 175 0.0 6.4 0.00 0.00 0.00 75 1010.3
20260831124540 14 0 0.0 3.2 0.00 0.00 0.00 75 1010.2
20260831123049 13 175 0.0 0.0 0.00 0.00 0.00 78 1010.2
20260831121547 13 0 0.0 0.0 0.00 0.00 0.00 79 1010.1
20260831120114 13 0 0.0 0.0 0.00 0.00 0.00 79 1010.1
20260831114550 13 0 0.0 0.0 0.00 0.00 0.00 79 1010.0
20260831113051 13 0 0.0 0.0 0.00 0.00 0.00 79 1009.9
20260831111555 13 0 0.0 0.0 0.00 0.00 0.00 79 1010.0
20260831110049 13 0 0.0 0.0 0.00 0.00 0.00 78 1010.2
20260831104547 13 0 0.0 0.0 0.00 0.00 0.00 77 1010.2
20260831103049 13 0 0.0 0.0 0.00 0.00 0.00 76 1010.1
20260831101548 14 0 0.0 0.0 0.00 0.00 0.00 75 1009.9
20260831100043 15 0 0.0 0.0 0.00 0.00 0.00 73 1010.0
20260831094549 15 0 0.0 0.0 0.00 0.00 0.00 73 1010.0
20260831093055 16 0 0.0 0.0 0.00 0.00 0.00 70 1009.9
20260831091542 16 0 0.0 0.0 0.00 0.00 0.00 68 1010.1
20260831090051 17 0 0.0 0.0 0.00 0.00 0.00 68 1010.0
20260831084557 17 0 0.0 0.0 0.00 0.00 0.00 67 1010.0
20260831083045 17 0 0.0 0.0 0.00 0.00 0.00 66 1010.0
20260831081549 18 0 0.0 0.0 0.00 0.00 0.00 64 1010.1
20260831080050 18 0 0.0 0.0 0.00 0.00 0.00 64 1010.2
20260831074550 18 0 0.0 0.0 0.00 0.00 0.00 64 1010.1
20260831073045 18 0 0.0 0.0 0.00 0.00 0.00 64 1010.0
20260831071543 18 0 0.0 0.0 0.00 0.00 0.00 63 1010.1
20260831070056 18 0 0.0 0.0 0.00 0.00 0.00 62 1010.0
20260831064546 19 0 0.0 0.0 0.00 0.00 0.00 60 1010.0
20260831063047 20 0 0.0 0.0 0.00 0.00 0.00 58 1010.1
20260831061542 21 0 0.0 3.2 0.00 0.00 0.00 56 1010.2
20260831060056 21 0 0.0 3.2 0.00 0.00 0.00 55 1010.1